Theta_e
346 350 355 356 358 355 354 348 343 347 346 344 346 346 346 348 351 355 347 346 337 338 340 343 341 341 339 336 337 339 339 340 341 341 334 338 338 342 341 339 342 343 343 342 337 336 336 339 339
351 354 352 353 355 357 353 347 347 345 345 346 346 344 345 348 347 347 346 345 343 335 337 343 341 341 337 334 337 341 341 338 340 335 337 337 339 340 342 343 343 342 342 339 342 344 344 338 329
351 352 349 343 347 358 351 346 344 342 345 346 345 344 343 347 348 348 346 344 344 342 339 341 340 341 340 342 341 342 340 335 332 333 339 340 341 342 340 337 339 342 342 343 334 331 335 333 329
350 352 348 351 351 351 348 345 343 343 344 345 344 344 344 346 347 347 346 346 345 345 344 339 338 339 341 340 341 335 331 332 332 337 339 341 339 341 337 339 337 337 338 336 335 336 332 330 333
352 352 358 352 353 347 345 343 344 344 344 345 343 344 345 347 346 346 346 345 344 344 344 338 338 338 338 340 340 335 337 337 337 338 338 338 340 341 341 340 339 339 336 336 333 331 329 328 330
351 349 357 358 355 348 346 342 342 345 343 345 343 343 343 344 345 346 344 344 343 343 345 339 339 339 338 339 338 337 339 339 338 340 340 340 340 340 340 340 340 339 335 334 330 326 325 326 327
351 353 357 355 353 350 350 342 342 342 342 343 343 343 342 340 344 345 344 342 341 341 343 340 337 337 337 338 338 337 336 338 340 340 341 341 339 339 339 341 338 336 335 331 331 330 329 328 329
347 350 348 350 346 350 349 348 344 343 343 343 342 343 342 340 340 344 344 342 340 338 339 336 335 336 337 338 341 341 335 338 342 340 339 337 337 338 339 341 338 335 337 336 335 332 330 331 334
348 352 346 352 347 354 351 347 345 343 341 345 344 342 341 340 339 343 344 343 342 340 339 339 334 333 338 339 340 342 341 342 342 337 336 337 337 337 340 342 337 336 337 336 333 332 332 333 338
350 354 353 351 349 351 351 350 346 343 343 344 343 343 341 340 340 339 345 342 344 343 344 343 341 336 338 340 341 337 337 337 338 339 342 344 344 343 341 340 334 337 336 334 342 344 344 337 343
350 355 349 347 347 346 351 346 348 344 344 345 344 343 341 341 341 340 340 344 344 345 346 345 344 336 337 338 340 340 338 339 341 345 345 345 346 346 338 340 335 334 335 336 343 346 346 348 347
353 350 349 347 347 346 349 349 348 346 346 344 343 342 341 341 341 340 340 340 344 344 347 347 344 341 340 336 338 338 339 340 340 342 341 343 341 339 340 338 336 345 348 344 345 349 346 348 348
350 348 348 348 348 350 348 348 349 341 343 346 343 342 342 341 341 339 340 341 342 344 343 346 346 346 342 336 336 340 341 341 337 337 344 344 344 342 344 346 343 346 342 347 347 345 348 344 346
345 348 348 347 347 347 348 350 350 342 344 344 343 343 343 342 342 340 339 340 340 344 346 345 344 343 346 343 343 344 344 346 342 344 346 347 342 345 345 343 346 343 345 343 346 346 346 346 345
347 351 347 349 348 348 346 348 349 346 348 343 343 343 343 343 342 341 341 340 340 344 346 344 345 347 347 345 347 344 344 343 344 342 347 346 344 348 341 346 343 344 348 348 345 346 345 343 344
351 351 348 350 347 345 344 351 344 342 340 346 344 343 344 343 342 341 341 340 341 343 346 342 343 344 343 341 347 348 345 344 345 346 344 343 345 337 342 348 347 340 341 343 343 347 344 343 343
348 349 346 352 347 345 343 347 344 337 342 344 344 342 343 342 343 343 343 341 342 344 346 341 345 344 344 339 348 347 344 344 344 343 346 345 342 351 349 343 339 348 350 348 346 343 345 343 343
349 347 347 352 351 349 347 345 343 344 348 344 346 345 344 344 343 344 344 342 342 347 347 344 346 345 345 343 344 346 345 344 344 345 348 341 350 348 349 334 344 349 350 351 344 345 345 346 343
343 342 345 347 351 350 350 350 346 344 346 347 344 345 343 344 345 345 344 344 344 345 347 347 344 347 343 342 345 343 342 345 342 346 349 344 348 342 348 348 342 347 349 347 348 350 345 341 343
345 345 345 349 347 351 346 352 350 344 347 343 340 345 345 344 345 345 345 345 346 345 347 349 345 347 344 345 346 344 344 342 343 345 346 344 347 348 343 349 349 347 350 343 338 350 350 348 345
342 344 342 340 344 347 349 352 351 347 345 343 337 346 345 345 345 345 346 346 346 346 347 349 347 347 343 346 346 345 344 345 344 347 346 344 346 348 345 348 346 347 341 350 344 341 349 351 348
333 336 339 337 337 344 346 357 347 340 344 348 345 342 344 346 346 345 347 346 347 347 347 349 348 347 344 346 345 346 343 346 345 346 346 346 342 348 351 345 343 343 339 349 351 343 349 350 338
330 335 336 336 335 338 344 347 349 342 346 350 348 346 346 345 348 342 338 339 349 348 344 350 347 347 349 345 347 345 344 344 345 343 344 348 349 348 348 349 348 345 339 348 344 351 352 345 350
329 332 335 336 335 336 338 345 350 346 348 346 349 346 345 346 346 345 346 347 348 348 350 353 349 345 347 345 346 347 342 347 344 343 347 345 347 344 345 349 345 347 345 350 345 343 346 342 340
325 328 331 336 337 337 343 345 351 346 346 341 339 346 346 349 347 346 347 346 343 346 344 341 350 347 346 346 341 345 346 344 346 344 348 348 342 348 346 345 343 341 343 346 346 349 346 347 345
325 327 330 339 348 347 344 345 346 344 340 341 338 345 348 349 348 348 349 347 343 346 348 350 350 349 347 348 345 343 344 345 345 347 345 345 347 346 349 347 346 344 347 348 346 343 346 341 346
326 327 329 332 342 347 346 342 340 339 340 339 342 346 347 348 349 348 349 349 348 346 349 349 351 350 347 349 348 346 344 342 348 348 344 347 346 346 348 347 347 346 348 342 349 348 345 348 346
330 329 329 332 338 348 347 345 345 342 339 340 343 341 343 345 347 348 349 349 349 348 347 350 351 350 349 350 350 347 345 344 345 347 346 344 345 348 346 351 346 344 347 348 348 345 346 349 346
329 332 332 333 334 338 343 345 343 341 341 340 339 339 340 342 343 346 349 349 350 350 349 349 348 350 351 348 351 349 348 346 342 344 344 344 346 342 348 348 349 348 347 345 346 343 346 346 349
329 331 332 332 336 334 334 341 337 339 339 338 339 340 342 342 344 345 347 350 351 349 348 351 351 351 352 349 350 350 348 347 347 341 346 345 346 344 345 332 348 345 347 348 349 346 348 348 346
Wind_Speed
4 0 4 12 3 2 4 7 13 14 15 16 27 18 17 23 6 10 17 19 17 16 14 12 13 12 13 12 12 11 10 11 11 10 11 10 12 13 16 15 14 15 14 14 15 15 15 16 16
2 11 4 3 3 3 6 11 15 9 18 19 18 19 24 21 21 19 18 16 18 16 11 11 13 13 13 12 12 10 11 12 12 11 13 14 13 14 16 16 15 16 15 15 15 15 15 15 16
7 4 5 4 4 4 10 7 14 12 16 19 15 19 19 25 18 18 22 23 17 13 13 13 13 13 14 13 13 11 11 14 12 13 13 16 15 15 15 15 16 16 15 13 14 14 14 14 18
3 6 7 7 16 22 13 11 13 12 15 20 17 12 19 24 17 22 20 19 20 17 10 11 14 15 15 14 13 14 15 12 13 13 14 14 15 15 17 16 17 15 16 15 14 14 14 16 21
10 13 3 1 16 11 14 8 22 12 15 24 23 20 25 26 25 20 21 18 18 15 9 16 15 15 15 14 13 14 12 12 14 14 14 15 15 16 16 17 17 16 15 14 13 14 14 16 19
6 6 2 4 15 12 12 13 12 18 15 25 23 26 20 20 24 24 21 23 18 16 15 15 16 15 15 15 14 15 15 14 15 15 15 15 15 16 18 15 14 15 14 14 13 13 14 15 16
8 3 7 1 5 15 10 4 9 14 18 22 27 20 21 18 19 30 27 20 19 16 17 18 17 13 17 17 17 18 18 17 18 17 16 16 16 16 14 13 15 15 14 14 14 13 13 15 16
5 4 12 3 2 5 16 12 10 14 19 19 20 16 20 21 19 28 23 19 21 23 22 20 19 17 16 15 16 17 18 14 19 23 19 14 15 14 11 15 15 15 15 15 14 13 14 14 17
6 5 5 7 13 8 18 5 13 11 15 12 8 25 25 23 20 23 24 22 18 21 14 19 15 15 15 16 17 17 17 14 14 20 19 12 12 13 14 12 15 16 15 14 15 15 14 15 18
5 3 9 6 9 10 9 12 6 17 13 21 25 28 25 23 21 18 25 23 21 14 10 24 16 15 15 19 21 20 16 13 17 20 21 18 10 7 11 12 15 15 14 15 18 14 11 15 12
10 3 5 7 6 12 18 2 9 6 14 22 24 25 24 22 19 18 18 19 24 19 16 12 16 13 16 18 20 21 16 17 17 16 13 19 12 11 10 15 16 14 14 17 12 9 5 3 5
6 15 11 7 11 11 12 15 3 16 8 10 23 21 22 20 19 17 20 18 23 21 18 10 5 17 18 19 18 21 17 15 16 14 10 12 15 13 13 14 16 12 7 7 3 5 1 1 2
6 9 11 9 7 8 6 5 5 8 6 10 20 21 20 18 16 15 17 20 22 17 9 16 8 14 24 23 23 21 24 18 11 20 18 15 12 13 10 12 8 7 6 6 8 5 2 2 7
10 8 11 14 11 7 6 4 6 12 10 21 19 20 19 17 16 13 17 15 15 14 23 18 15 8 9 22 16 22 18 17 12 8 9 10 10 19 14 16 10 14 9 5 8 5 3 1 3
11 8 20 14 11 7 7 4 9 9 13 24 22 20 17 19 18 18 16 17 16 17 21 20 15 17 7 8 8 20 21 16 15 13 16 24 24 19 18 20 13 13 16 12 10 8 7 7 3
6 9 4 8 12 7 11 9 9 12 21 17 27 20 18 17 18 15 16 17 19 21 18 15 17 15 13 20 18 10 15 14 17 10 10 5 17 15 24 12 19 7 10 9 8 2 4 7 4
9 8 17 10 10 10 6 5 3 16 27 26 16 19 18 17 15 16 16 17 19 21 17 16 20 17 15 16 8 6 12 13 14 12 11 3 3 7 8 8 17 9 6 9 10 4 2 5 6
4 10 7 16 9 14 11 10 16 29 27 23 4 7 21 19 18 18 18 19 19 21 18 18 14 20 18 16 15 10 13 11 11 14 19 14 7 7 5 22 9 4 7 4 7 4 2 3 4
17 12 16 12 23 18 13 13 17 16 13 10 13 17 22 22 22 21 20 22 22 19 21 20 20 18 20 19 14 11 14 11 11 8 13 8 8 7 7 11 12 4 2 6 6 1 2 5 6
19 15 13 15 11 10 2 12 17 19 18 21 26 26 23 25 22 23 25 24 23 26 24 23 23 22 21 19 16 13 14 14 13 11 11 9 9 8 9 5 6 6 4 2 9 6 7 6 6
18 11 10 1 7 10 15 13 5 4 18 25 29 24 19 21 27 23 16 24 23 24 27 27 26 22 23 20 18 16 16 13 16 12 10 8 11 9 9 8 8 4 5 3 3 6 6 7 8
14 9 12 6 7 4 5 3 5 12 15 18 26 25 23 24 25 27 17 21 28 33 25 27 25 23 21 23 19 15 21 13 17 15 10 11 8 8 8 11 7 8 8 3 0 7 9 7 3
16 1 8 11 9 13 11 5 6 5 15 21 23 26 24 29 29 29 23 39 31 31 20 28 17 21 20 28 22 21 20 18 12 16 12 15 9 11 8 9 6 8 6 6 9 9 11 13 7
17 11 11 12 12 12 18 8 6 10 17 8 17 34 32 31 30 26 27 24 22 25 20 16 18 20 23 23 23 22 21 20 18 18 18 17 12 9 13 10 8 8 8 7 9 11 12 13 14
16 15 10 11 10 7 8 6 8 19 16 16 10 29 38 29 26 31 34 29 19 23 19 28 28 23 25 23 26 25 25 23 16 21 15 16 13 16 12 17 10 6 7 10 8 9 11 11 12
17 18 14 8 6 4 13 8 8 22 15 52 55 21 18 23 24 24 26 25 25 19 24 38 34 24 21 22 22 28 27 24 22 22 24 18 16 19 21 17 11 8 14 10 8 7 5 5 8
13 16 21 16 6 3 6 5 1 11 13 13 15 12 11 11 14 25 29 27 27 27 27 31 32 24 19 23 24 25 28 30 21 24 25 21 18 8 15 16 11 10 9 11 11 11 7 7 12
18 11 13 12 13 9 6 14 10 15 12 14 17 14 14 6 4 5 20 24 25 26 29 22 26 26 22 23 23 24 27 28 29 25 24 23 22 9 16 19 14 14 13 15 16 12 13 13 13
11 11 10 14 6 7 5 4 14 11 11 12 12 16 15 10 7 4 4 8 21 21 24 31 32 34 24 22 25 21 21 23 27 30 27 26 22 26 18 11 14 14 16 14 14 15 15 17 14
16 16 14 10 10 9 12 6 6 12 14 12 15 14 12 6 6 5 5 6 8 23 25 26 32 30 26 25 27 26 22 22 22 30 26 27 26 27 25 19 15 20 20 14 18 14 11 12 10
Wind_Direction
253 138 8 287 15 267 325 147 91 96 81 78 61 65 65 51 64 116 126 159 160 144 131 120 117 115 125 124 121 120 112 104 97 97 99 105 112 106 109 110 113 116 119 113 107 106 105 106 102
153 276 280 29 332 291 92 73 102 101 102 85 72 84 76 75 96 117 123 147 141 148 141 133 120 120 127 126 122 120 117 108 99 102 108 110 114 114 110 112 111 112 112 108 106 106 107 107 100
152 272 344 46 307 310 109 136 89 96 83 92 88 75 78 113 106 122 124 144 139 129 160 142 129 129 128 124 119 122 130 107 101 107 113 111 109 108 108 110 112 111 109 110 109 107 108 106 104
261 242 188 144 257 255 116 105 120 122 88 106 107 75 77 109 103 126 138 145 144 133 155 151 143 137 133 129 122 117 119 120 120 116 115 109 112 111 110 109 107 107 111 108 110 110 106 109 111
263 268 102 324 240 108 91 123 115 125 109 87 102 93 95 104 115 125 135 125 127 131 136 146 145 142 140 136 129 125 123 128 123 120 116 115 115 115 115 115 115 117 112 113 112 108 110 111 116
264 343 46 133 274 93 85 79 82 92 96 107 116 106 106 123 122 130 130 117 122 124 132 143 138 144 145 143 135 130 131 131 128 126 122 119 117 117 119 118 118 119 116 111 108 108 110 108 113
218 115 286 139 304 335 64 87 114 135 129 126 117 119 129 121 132 134 128 116 120 121 126 124 131 133 151 141 145 139 136 140 136 128 119 116 119 117 124 123 122 121 114 110 106 105 104 106 112
338 77 345 121 73 269 289 101 80 105 105 103 122 132 141 136 135 126 127 106 126 119 124 119 118 114 142 139 141 141 136 136 136 123 115 115 121 121 118 129 129 125 118 111 104 101 102 106 106
209 94 277 200 175 202 237 148 118 109 130 112 130 143 140 144 139 132 127 124 128 127 120 132 123 105 120 153 149 131 127 129 142 119 119 118 109 133 141 139 137 130 119 111 103 99 100 107 104
84 112 221 149 157 186 70 17 336 139 121 92 123 124 140 148 150 142 143 136 142 149 125 146 141 119 111 136 143 141 137 138 125 120 114 122 125 130 155 143 138 129 120 111 101 96 103 114 101
85 259 68 91 159 157 101 122 300 50 135 134 132 137 148 152 158 152 147 149 145 140 130 138 123 115 125 119 147 150 142 138 143 145 147 153 144 149 171 144 135 125 117 117 94 76 56 36 171
89 292 92 103 142 153 126 200 194 20 68 131 138 145 152 161 163 159 155 146 143 138 135 134 160 159 140 130 151 144 148 153 146 140 123 142 146 136 133 129 128 113 99 121 67 80 174 231 202
41 114 117 122 110 100 155 91 158 150 138 202 138 150 160 167 159 168 152 147 139 145 153 143 119 156 132 155 153 138 145 144 135 136 130 150 166 174 173 147 170 143 148 141 119 146 113 165 49
191 149 141 137 135 112 148 115 326 178 233 152 148 158 169 164 168 157 146 139 149 162 151 137 148 147 127 147 141 150 153 160 142 142 155 177 178 164 170 177 145 170 182 180 161 154 145 181 180
156 82 14 147 151 134 149 157 358 277 341 152 153 164 175 173 174 159 149 152 158 155 142 144 144 151 160 156 175 132 145 163 160 176 186 165 182 184 186 179 160 206 160 159 173 165 152 127 125
134 93 280 175 127 142 179 139 13 344 317 291 156 166 196 165 164 159 159 164 163 162 156 147 160 162 176 170 168 219 172 153 161 173 193 186 166 137 163 218 157 161 145 153 144 184 261 160 172
49 12 343 282 143 146 149 110 55 197 260 267 160 160 168 166 155 160 164 168 158 161 161 162 168 159 162 166 185 185 153 167 155 147 177 166 67 234 257 175 133 181 227 188 203 230 200 215 203
101 298 265 258 226 190 152 181 199 212 214 193 127 229 172 157 182 167 170 166 165 164 165 168 164 173 163 185 176 164 157 154 154 176 172 176 180 220 359 113 156 166 136 85 197 144 247 203 245
150 190 237 259 181 176 193 176 187 199 207 191 183 231 180 186 185 185 172 167 169 166 173 178 173 184 180 177 163 159 159 167 168 199 149 177 213 203 130 148 180 110 332 179 87 13 258 204 290
164 155 250 175 161 123 128 233 169 182 186 175 198 218 202 181 175 189 178 181 175 179 177 182 181 192 181 170 174 174 167 184 182 197 202 222 206 225 191 138 170 211 99 53 205 230 187 242 219
203 203 252 275 169 171 155 250 106 211 200 188 202 225 198 204 177 183 218 186 180 190 177 189 183 199 186 175 182 197 195 197 194 208 223 211 197 217 206 226 215 221 226 288 210 218 306 262 177
264 264 200 205 270 250 220 179 102 303 292 203 212 217 193 164 179 173 211 192 201 203 190 196 186 197 191 177 190 197 192 195 193 207 212 225 233 201 241 247 242 230 209 293 307 229 281 327 252
264 18 265 282 272 260 179 190 131 174 259 233 203 202 213 191 179 187 200 211 216 202 206 196 194 205 194 183 184 199 198 197 209 204 211 213 228 201 205 246 229 236 222 258 247 222 237 240 236
253 242 213 236 247 262 238 196 193 186 230 345 216 191 198 203 192 207 197 203 200 189 179 184 214 215 200 198 190 192 200 196 209 199 210 204 222 251 201 230 234 230 212 249 257 243 249 243 252
236 246 249 240 228 269 111 206 187 213 182 147 173 251 227 195 186 204 188 197 217 197 227 208 212 212 205 205 200 202 198 206 200 207 194 200 216 227 214 201 222 237 221 220 247 236 249 245 254
209 233 235 240 4 30 332 17 164 193 170 167 193 188 141 180 191 202 198 198 199 202 205 197 202 207 207 206 206 209 206 205 208 208 208 204 226 231 224 215 220 222 229 216 230 259 283 248 264
195 231 255 263 97 71 308 323 278 135 140 138 129 126 153 170 189 196 195 202 202 199 202 199 201 206 212 208 209 214 213 210 212 209 211 211 209 249 225 213 215 209 224 228 241 238 249 254 266
260 218 233 249 251 189 194 267 245 166 166 150 146 159 134 134 167 214 207 191 199 203 205 200 207 218 215 203 215 215 217 213 206 210 211 211 214 199 209 195 230 214 214 222 225 235 243 248 247
221 252 262 277 312 283 187 263 145 167 161 159 154 154 139 154 151 154 229 206 192 203 211 209 208 214 209 203 209 212 222 219 216 214 213 208 213 214 223 206 223 232 227 233 240 245 228 253 249
255 214 226 255 238 256 290 181 247 137 146 171 145 126 121 119 128 153 182 213 212 209 212 208 204 215 214 208 207 212 218 222 229 212 213 212 218 222 233 237 228 225 229 234 259 251 245 261 252